Regional Weather Roundup
Issued by NWS

Home | Current Version | Previous Version | Graphics & Text | Print | Product List | Glossary Off
Versions: 1 2 3 4 5 6 7 8 9 10 11 12 13 14 15 16 17 18 19 20 21 22 23 24 25 26 27 28 29 30 31 32 33 34 35 36 37 38 39 40 41 42 43 44 45 46 47 48 49 50

000
ASUS43 KTOP 221008
RWRKS

WEATHER ROUNDUP FOR KANSAS
NATIONAL WEATHER SERVICE GOODLAND KS
500 AM CDT FRI MAY 22 2015

NOTE:  "FAIR" INDICATES FEW OR NO CLOUDS BELOW 12,000 FEET WITH NO
SIGNIFICANT WEATHER AND/OR OBSTRUCTIONS TO VISIBILITY.

KSZ001>006-013>018-027>032-041>047-221100-
NORTHWEST KANSAS

CITY           SKY/WX    TMP DP  RH WIND       PRES   REMARKS
GOODLAND       RAIN      47  46  97 SE15      30.11F
HAYS           CLOUDY    50  43  76 E3        30.16F
HILL CITY      CLOUDY    49  45  86 E6        30.16F
RUSSELL        CLOUDY    50  47  89 E7        30.16F
$$

KSZ061>065-074>080-084>089-221100-
SOUTHWEST KANSAS

CITY           SKY/WX    TMP DP  RH WIND       PRES   REMARKS
DODGE CITY     HVY RAIN  50  47  89 S13       30.21R FOG
ELKHART          N/A     49  44  83 SE15        N/A
GARDEN CITY    RAIN      48  48 100 SE13      30.15F
GREAT BEND     CLOUDY    52  45  76 SE8       30.17F
LIBERAL        CLOUDY    52  46  82 SE10      30.12F
PRATT          LGT RAIN  52  46  82 SE5       30.20S
$$

KSZ066>073-081>083-090>101-221100-
SOUTHEAST KANSAS

CITY           SKY/WX    TMP DP  RH WIND       PRES   REMARKS
CHANUTE        PTCLDY    45  44  97 E3        30.21F
COFFEYVILLE    PTCLDY    49  47  93 E5        30.20S
HUTCHINSON     CLOUDY    51  47  86 CALM      30.19F
MEDICINE LODGE   N/A     52  50  93 CALM      30.20R
NEWTON         CLOUDY    50  43  76 CALM      30.22F
PARSONS        PTCLDY    50  47  89 VRB3      30.22S
WICHITA INTL   CLOUDY    53  47  79 E5        30.19F
WICHITA JABRA  CLOUDY    49  47  93 NE3       30.20S
WICHITA MCCONL CLOUDY    53  46  79 E3        30.19F
WINFIELD       CLOUDY    51  47  86 NE3       30.20F
$$

KSZ007>012-019>026-033>040-048>060-102>105-221100-
NORTHEAST KANSAS

CITY           SKY/WX    TMP DP  RH WIND       PRES   REMARKS
CONCORDIA      CLOUDY    49  43  80 CALM      30.21S
EMPORIA        MOCLDY    46  44  93 NE3       30.20F
LAWRENCE       CLEAR     45  43  93 NE3       30.23R
MANHATTAN      CLOUDY    47  46  97 CALM      30.22S
MARYSVILLE     CLOUDY    46  45  93 CALM      30.21S
OLATHE IND     CLEAR     47  45  93 CALM      30.24R
OLATHE EXE     CLEAR     48  46  93 CALM      30.22R
SALINA         CLOUDY    50  45  83 CALM      30.21S
TOPEKA BILLARD PTCLDY    47  45  93 CALM      30.22S
TOPEKA FORBES  CLEAR     47  43  86 CALM      30.21R
$$



USA.gov is the U.S. government's official web portal to all federal, state and local government web resources and services.